Hourly Data Report for June 03, 2012

All times are specified in Local Standard Time (LST). Add 1 hour to adjust for Daylight Saving Time where and when it is observed.

VICTORIA HARTLAND CS
BRITISH COLUMBIA

48°32'01.800" N
123°27'32.900" W
154.10 m
1018FJ5

Download Data

Hourly Data (June 2012)
Hourly Data Report for June 3, 2012
Temp Definition
°C
Dew Point Temp Definition
°C
Rel Hum Definition
%
Wind Dir Definition
10's deg

Wind Spd Definition
km/h
Visibility Definition
km
Stn Press Definition
kPa
Hmdx Definition


Wind Chill Definition


Weather Definition


TIME
00:00 9.6 1.4 57 28 7   99.57     LegendNANA
01:00 9.7 1.0 55 28 7   99.56     LegendNANA
02:00 8.9 2.7 65   0   99.54     LegendNANA
03:00 8.5 3.1 69   0   99.55     LegendNANA
04:00 7.6 3.2 74   0   99.54     LegendNANA
05:00 7.5 3.6 76   0   99.57     LegendNANA
06:00 8.3 3.3 71   0   99.60     LegendNANA
07:00 9.4 2.4 62 15 2   99.60     LegendNANA
08:00 11.8 0.7 46 19 4   99.65     LegendNANA
09:00 12.6 0.6 44 20 7   99.65     LegendNANA
10:00 12.8 1.6 46 14 6   99.67     LegendNANA
11:00 12.5 1.9 48 15 9   99.68     LegendNANA
12:00 13.3 0.7 42 20 9   99.74     LegendNANA
13:00 14.3 0.1 38 21 11   99.76     LegendNANA
14:00 14.9 -0.1 36 12 4   99.74     LegendNANA
15:00 14.1 1.5 42 1 6   99.70     LegendNANA
16:00 14.3 1.4 41 16 9   99.70     LegendNANA
17:00 13.8 -1.4 35 18 13   99.69     LegendNANA
18:00 12.8 -0.9 39 18 13   99.72     LegendNANA
19:00 11.5 -0.4 44 18 11   99.65     LegendNANA
20:00 9.8 1.0 54 21 4   99.59     LegendNANA
21:00 8.6 0.9 58 35 4   99.58     LegendNANA
22:00 8.3 1.7 63 36 6   99.58     LegendNANA
23:00 8.2 3.4 72 33 6   99.53     LegendNANA

Notes on Data Quality.

Legend

  • E = Estimated
  • M = Missing
  • NA = Not Available
  • ‡ = Partner data that is not subject to review by the National Climate Archives
Date modified: